{"data":{"norad_id":59775,"epoch":"2026-09-22T21:48:07.055136Z","epoch_age_seconds":64578,"freshness":"FRESH","line1":"1 59775U 24092C   26265.90841499  .00007815  00000+0  26307-3 0  9996","line2":"2 59775  97.6754  40.0227 0008212 192.1704 167.9339 15.31041418130522","mean_motion":15.31041418,"eccentricity":0.0008212,"inclination_deg":97.6754,"raan_deg":40.0227,"arg_perigee_deg":192.1704,"mean_anomaly_deg":167.9339,"bstar":0.00026307,"rev_number":13052,"period_min":94.053628012302,"perigee_km":467.07798704886,"apogee_km":478.32980813907,"semimajor_km":6850.840897594,"source":"CELESTRAK","updated_at":"2026-09-23T09:00:19.579333Z"}}